Home   Weather   Daegu   Past weeks

Flag for South Korea Past Weather in Daegu, South Korea — Yesterday and Last 2 Weeks

Now
25 °F

Clear.


Feels Like: 17 °F
Forecast: 18 / 37 °F
Wind: 7 mph from Northwest

Location: Taegu Ab

Current Time: Jan 21, 2017 at 7:23:18 am

Latest Report: Jan 21, 2017 at 6:00 am


Visibility: 10 mi

Pressure: 30.36 "Hg

Humidity: 63%

Dew Point: 14 °F

Location of DaeguLocation

Past Weather in Daegu — Graph

°F

Daegu Temperature Yesterday

Maximum temperature yesterday: 36 °F (at 1:00 pm)
Minimum temperature yesterday: 27 °F (at 11:00 pm)
Average temperature yesterday: 31 °F

High & Low Weather Summary for the Past Weeks

 TemperatureHumidityPressure
High55 °F (Jan 8, 4:00 pm)93% (Jan 7, 4:00 am)30.48 "Hg (Jan 7, 4:00 am)
Low18 °F (Jan 16, 5:00 am)16% (Jan 14, 2:00 pm)29.83 "Hg (Jan 8, 3:00 pm)
Average34 °F53%30.17 "Hg
* Reported Jan 6 6:00 am — Jan 21 6:00 am, Daegu, Weather by CustomWeather, © 2017

Note: Actual official high and low records may vary slightly from our data, if they occured in-between our weather recording intervals... More about our weather records

Advertising

Daegu Weather History for the Previous 24 Hours

Scroll right to see more
 ConditionsComfort  
Time TempWeatherWind HumidityBarometerVisibility
6:00 am
Sat, Jan 21
25 °FClear.7 mph63%30.36 "Hg10 mi
12:00 am25 °FPassing clouds.10 mph63%30.33 "HgN/A
11:00 pm
Fri, Jan 20
27 °FPassing clouds.7 mph59%30.33 "HgN/A
10:00 pm28 °FPassing clouds.9 mph55%30.30 "HgN/A
9:00 pm28 °FPassing clouds.12 mph55%30.27 "HgN/A
8:00 pm30 °FPassing clouds.10 mph51%30.27 "HgN/A
7:00 pm30 °FPassing clouds.13 mph47%30.24 "HgN/A
6:00 pm30 °FPassing clouds.16 mph47%30.18 "HgN/A
5:00 pm32 °FPassing clouds.18 mph47%30.15 "HgN/A
4:00 pm34 °FScattered clouds.20 mph44%30.09 "HgN/A
3:00 pm34 °FScattered clouds.23 mph48%30.04 "HgN/A
2:00 pm34 °FPartly sunny.21 mph51%30.01 "HgN/A
1:00 pm36 °FPartly sunny.21 mph48%29.98 "HgN/A
12:00 pm34 °FPartly sunny.17 mph60%30.01 "HgN/A
11:00 am34 °FPartly sunny.18 mph65%29.98 "Hg6 mi
10:40 am34 °FBroken clouds.18 mph70%29.98 "Hg5 mi
10:00 am32 °FLight snow. Ice fog.12 mph87%29.95 "Hg1 mi
9:00 am32 °FLight snow. Ice fog.5 mph75%29.95 "Hg2 mi
8:10 am30 °FLight snow. Ice fog.3 mph75%29.92 "Hg2 mi
8:01 am32 °FLight snow. Ice fog.3 mph64%29.92 "Hg3 mi
7:00 am32 °FPartly cloudy.1 mph64%29.92 "Hg3 mi
Weather by CustomWeather, © 2017

See weather overviewHow to use our weather pages